Wind_Speed
4 4 3 5 6 9 10 12 13 14 12 11 10 10 11 13 13 15 17 18 18 19 19 18 18 19 18 19 19 17 14 11 14 10 12 13 19 20 16 17 15 17 19
4 3 2 2 4 6 8 9 10 12 12 11 11 12 11 12 13 15 17 19 19 20 19 20 19 20 18 19 19 19 18 13 16 14 11 8 7 10 9 12 12 11 8
5 3 2 1 2 3 4 6 8 9 11 11 11 10 11 10 12 13 14 19 20 21 21 21 20 20 19 19 20 20 19 14 14 15 10 7 5 16 5 8 7 10 13
6 4 3 2 0 0 2 3 4 6 8 13 11 14 13 13 13 13 14 15 19 20 22 22 21 21 19 19 19 19 19 17 14 10 12 6 7 6 11 9 12 15 15
9 5 4 3 2 3 2 1 2 4 6 10 10 10 11 12 12 14 15 16 17 18 18 20 22 22 20 21 20 18 18 16 14 12 13 10 7 7 11 17 16 17 12
12 8 7 5 3 3 3 3 2 3 4 7 8 9 11 11 12 13 14 15 15 16 19 19 19 20 20 21 20 20 18 17 14 13 12 12 9 11 10 13 18 21 15
15 11 8 6 4 3 3 4 4 5 6 8 9 11 12 13 13 12 13 15 14 14 18 20 19 19 21 21 21 20 20 19 16 15 11 10 10 10 12 15 17 17 20
17 13 11 8 5 3 3 4 6 8 10 12 14 15 17 15 14 15 15 16 15 15 19 19 19 19 20 21 21 20 19 20 19 19 17 12 11 11 11 13 16 20 16
19 15 11 9 7 6 6 8 11 13 14 16 18 20 21 22 22 23 22 20 20 19 20 23 22 21 21 21 22 21 21 21 20 21 21 18 13 13 14 14 13 14 19
17 15 11 9 8 8 9 11 14 16 17 19 20 21 22 22 23 24 27 27 27 26 24 25 26 27 27 25 24 23 20 23 23 22 20 22 18 17 16 15 14 15 16
15 11 9 7 6 7 6 8 12 12 13 16 18 20 21 21 22 22 24 25 25 27 27 27 26 26 26 25 23 27 27 26 27 27 26 25 24 23 18 18 17 18 17
10 7 5 3 2 1 3 5 8 10 13 15 17 19 21 22 19 19 20 22 24 24 25 26 27 27 28 28 28 29 30 27 27 26 25 27 23 23 22 20 20 20 20
7 7 6 4 3 3 4 6 9 12 15 17 18 19 20 20 20 20 21 22 23 23 24 23 24 25 27 28 29 31 31 31 31 33 29 28 25 26 23 21 21 20 20
9 7 6 5 4 3 6 8 11 14 17 17 16 17 22 24 24 25 26 27 27 27 25 25 27 27 28 29 30 31 33 34 35 35 35 34 31 31 27 24 22 21 21
9 7 5 4 4 6 8 10 12 14 16 16 17 19 22 24 25 26 29 29 30 28 28 28 29 28 30 31 32 32 33 35 38 39 38 37 40 36 32 28 23 21 21
8 7 4 4 5 7 8 10 12 15 16 17 19 20 22 24 24 26 27 28 29 30 30 31 31 31 31 31 33 36 37 39 40 43 42 39 37 39 35 32 30 30 26
7 5 4 4 5 7 10 12 14 16 18 19 20 22 23 25 26 27 28 29 30 30 30 31 31 32 32 33 36 38 39 38 40 40 44 43 38 38 35 32 30 31 31
7 5 3 3 5 8 10 13 15 17 19 20 21 22 24 26 27 28 29 30 30 30 31 31 32 33 33 35 36 37 36 37 39 40 40 46 43 37 35 29 26 27 25
6 4 2 3 6 9 13 15 17 19 20 20 21 23 24 26 27 28 29 29 30 31 33 33 34 33 36 38 39 31 34 35 36 38 40 43 46 39 38 30 28 22 22
5 2 3 6 8 11 14 17 20 21 20 21 22 23 24 25 27 27 29 30 31 33 35 36 34 35 36 35 40 35 32 35 35 36 36 41 49 39 39 32 22 21 22
3 2 5 8 12 15 17 20 21 21 21 21 22 23 24 26 26 28 30 32 33 34 34 35 34 34 34 33 35 40 37 35 36 36 36 32 35 41 39 36 25 22 18
2 5 9 13 16 18 20 22 21 21 20 21 22 23 24 26 29 31 32 31 33 34 35 35 34 32 32 33 34 36 38 31 33 35 35 34 35 44 45 34 27 22 20
5 9 13 17 19 20 21 22 22 21 21 22 23 24 26 28 30 31 32 34 33 35 36 35 35 36 35 36 35 35 35 35 33 30 31 29 29 34 33 30 29 24 21
8 13 17 20 21 20 20 20 21 21 22 23 25 26 28 29 30 31 31 32 34 33 32 34 36 37 39 38 34 41 35 31 28 27 26 24 17 22 25 25 27 26 20
13 16 19 21 21 21 21 21 21 21 22 24 26 27 28 29 31 31 32 34 33 31 32 32 32 33 36 35 35 33 30 26 25 27 25 20 16 12 10 12 14 16 18
17 18 20 21 22 21 21 21 21 21 24 25 26 28 29 30 31 33 34 36 36 36 33 29 27 34 28 28 33 32 25 15 20 24 21 17 14 11 10 10 13 15 18
Wind_Direction
122 98 88 59 54 48 45 45 41 40 40 36 38 32 29 25 21 19 18 18 18 17 19 19 18 18 16 17 16 18 7 356 343 332 303 283 250 256 269 268 273 267 274
166 177 163 85 56 48 44 42 39 36 37 32 31 37 38 27 21 12 8 10 10 10 10 11 11 12 14 13 14 16 16 10 2 357 352 325 287 225 271 267 272 271 287
181 187 190 137 49 40 32 34 30 31 29 42 29 31 31 25 21 12 9 6 7 6 5 4 4 5 7 7 8 10 13 13 9 8 12 345 328 328 283 328 326 313 296
203 205 209 206 240 347 10 23 21 24 27 40 24 31 27 25 21 12 5 5 4 2 1 1 2 2 3 3 4 3 7 11 6 14 6 11 328 320 319 308 319 303 303
201 204 208 211 229 254 257 296 358 8 18 41 31 28 26 22 18 16 12 6 3 3 1 359 356 355 355 356 359 2 4 4 2 358 359 -0 349 311 307 312 316 322 318
198 201 199 199 215 245 235 254 289 321 336 10 10 9 8 5 1 357 2 359 359 1 0 358 355 353 351 348 349 351 354 357 357 357 351 348 341 324 321 309 317 319 324
194 198 199 202 209 222 233 249 279 302 308 320 327 333 340 342 338 336 338 341 342 346 352 356 355 351 346 342 340 338 340 342 343 344 340 328 330 316 313 315 313 316 320
194 197 199 198 204 222 244 274 295 303 307 306 307 307 315 309 308 311 315 319 320 324 337 342 344 345 343 337 330 325 323 324 326 327 328 319 313 309 306 305 312 316 316
194 198 202 207 220 244 266 279 287 297 300 300 301 301 301 301 300 301 301 301 305 307 312 320 323 325 327 328 325 318 311 311 313 312 312 312 304 301 292 298 293 297 305
193 200 207 221 240 258 278 288 294 296 300 300 300 299 296 292 289 289 292 295 297 297 297 300 304 306 308 309 311 312 305 307 305 302 299 301 299 294 290 287 284 280 282
195 202 215 233 258 277 292 306 301 312 317 314 315 314 312 304 295 291 291 291 290 291 290 290 289 289 288 289 286 296 297 296 301 298 297 297 295 292 285 282 280 276 274
196 209 221 220 178 14 -0 348 326 324 320 321 319 318 316 313 313 308 303 299 296 294 293 292 288 285 282 280 278 279 282 277 280 282 281 288 285 283 283 281 276 272 271
175 147 129 117 90 48 9 354 325 324 323 323 323 321 320 320 320 318 314 311 308 305 302 298 295 291 287 283 277 274 272 271 270 275 271 275 273 277 278 274 271 271 271
141 130 111 88 57 356 341 345 334 328 326 328 334 329 322 320 319 316 314 312 309 308 306 302 298 295 291 287 283 279 275 271 269 265 264 266 269 274 275 271 268 267 266
132 120 100 71 30 2 358 345 340 336 335 337 337 333 327 323 320 317 313 311 309 309 307 305 302 299 294 291 287 283 280 278 273 266 263 260 265 267 268 269 265 259 262
132 115 92 52 21 6 358 352 347 341 340 336 332 328 326 323 322 319 318 315 313 310 307 305 302 299 296 290 285 284 286 282 276 269 263 259 256 259 262 265 268 263 256
133 115 87 45 13 358 351 346 341 336 332 328 325 324 324 322 321 320 318 317 315 313 310 308 306 302 300 298 296 292 292 287 278 272 261 257 254 254 260 264 265 266 265
134 115 85 29 356 348 342 338 332 327 324 322 321 323 322 320 319 317 316 314 314 311 309 307 306 303 301 297 296 298 299 294 287 277 266 254 249 244 244 246 252 260 259
136 123 69 4 341 335 333 332 328 321 320 319 320 320 321 320 320 318 317 316 314 311 311 310 309 308 307 306 305 305 305 298 290 283 272 257 248 242 242 241 246 239 245
140 131 345 335 328 328 330 327 323 321 319 318 320 321 320 320 319 319 319 317 315 312 310 309 307 305 304 304 311 312 315 310 302 290 282 266 247 236 236 235 231 239 244
172 325 326 322 322 323 323 322 320 318 316 317 318 319 319 319 318 317 315 313 312 310 309 309 308 306 306 306 306 307 312 314 312 308 295 280 253 228 229 244 225 228 229
249 308 316 316 318 318 318 318 317 314 314 316 317 318 319 319 319 317 316 315 313 309 309 311 308 306 308 309 309 307 312 312 314 312 312 292 271 258 246 233 229 229 236
306 313 314 314 314 311 312 313 314 314 315 316 316 317 318 320 319 319 317 315 312 309 309 311 309 306 309 311 314 316 308 314 314 313 312 310 268 254 246 229 224 220 230
311 314 313 312 311 309 310 312 313 314 314 315 315 318 319 317 320 318 314 310 309 309 309 308 309 308 310 311 315 319 308 306 309 317 319 316 299 256 248 229 222 228 234
315 314 313 311 311 311 311 313 312 313 314 315 317 318 318 318 319 317 314 308 305 304 305 306 308 312 308 313 314 326 312 308 301 309 317 324 309 292 269 247 236 239 241
317 316 315 313 312 310 309 312 312 313 315 315 317 316 316 318 318 315 314 311 310 311 313 315 310 312 312 308 310 310 325 310 308 308 314 315 311 298 278 262 256 252 247
Height
1645 1644 1644 1644 1642 1640 1638 1636 1633 1631 1631 1629 1627 1626 1623 1620 1618 1616 1614 1611 1609 1606 1603 1601 1598 1595 1592 1589 1586 1583 1581 1581 1576 1574 1571 1569 1570 1572 1574 1574 1574 1575 1575
1644 1645 1645 1643 1642 1640 1639 1638 1637 1634 1632 1631 1628 1625 1622 1621 1619 1617 1615 1613 1609 1606 1604 1601 1598 1595 1592 1590 1587 1584 1582 1580 1577 1571 1569 1567 1568 1566 1570 1569 1570 1568 1567
1644 1645 1644 1643 1642 1641 1640 1640 1638 1636 1634 1631 1631 1628 1625 1624 1622 1620 1617 1613 1610 1607 1604 1601 1599 1596 1594 1591 1587 1585 1583 1581 1579 1574 1573 1571 1569 1566 1567 1567 1566 1563 1563
1642 1643 1643 1643 1642 1641 1640 1639 1638 1637 1635 1632 1632 1629 1628 1626 1622 1621 1618 1614 1611 1608 1605 1602 1599 1597 1594 1592 1589 1586 1583 1580 1580 1578 1575 1572 1572 1570 1565 1565 1563 1561 1560
1639 1641 1641 1642 1642 1641 1641 1640 1639 1638 1636 1633 1631 1631 1628 1627 1624 1622 1619 1616 1612 1609 1606 1603 1600 1597 1594 1591 1589 1586 1583 1581 1579 1578 1574 1573 1572 1570 1569 1563 1561 1559 1558
1637 1639 1640 1640 1640 1640 1639 1639 1638 1638 1636 1634 1633 1631 1629 1626 1625 1622 1619 1617 1614 1611 1607 1603 1600 1597 1595 1591 1588 1585 1583 1581 1579 1577 1574 1572 1571 1569 1568 1564 1561 1555 1554
1633 1636 1638 1639 1639 1639 1638 1638 1637 1637 1635 1634 1632 1631 1629 1626 1624 1622 1620 1617 1614 1611 1607 1604 1600 1597 1594 1591 1589 1585 1582 1579 1577 1575 1574 1572 1570 1568 1567 1563 1559 1555 1551
1631 1633 1635 1636 1637 1638 1638 1638 1637 1636 1635 1634 1632 1629 1627 1626 1624 1622 1619 1616 1614 1610 1606 1603 1600 1597 1593 1591 1588 1585 1581 1578 1575 1573 1570 1570 1568 1565 1564 1562 1558 1553 1551
1627 1631 1633 1635 1635 1636 1637 1636 1634 1633 1632 1630 1628 1626 1624 1622 1620 1618 1615 1613 1610 1607 1604 1600 1597 1594 1591 1589 1586 1582 1579 1575 1572 1570 1567 1566 1565 1562 1559 1556 1555 1553 1548
1625 1628 1630 1632 1633 1633 1633 1632 1631 1630 1629 1626 1624 1622 1619 1618 1615 1613 1610 1608 1605 1602 1599 1596 1593 1590 1587 1584 1581 1578 1576 1572 1569 1566 1564 1562 1560 1558 1556 1552 1551 1548 1545
1624 1626 1628 1629 1629 1629 1629 1628 1627 1626 1624 1622 1619 1617 1614 1611 1609 1607 1604 1602 1598 1595 1592 1590 1588 1584 1582 1579 1576 1573 1570 1567 1564 1561 1558 1556 1554 1552 1551 1548 1545 1543 1540
1623 1625 1626 1626 1626 1625 1625 1624 1623 1622 1620 1618 1616 1613 1610 1607 1603 1600 1597 1594 1591 1588 1585 1582 1580 1577 1575 1573 1569 1566 1563 1560 1557 1555 1552 1549 1547 1545 1543 1540 1537 1536 1533
1621 1622 1623 1623 1624 1623 1621 1621 1620 1619 1617 1615 1612 1609 1605 1602 1599 1595 1592 1589 1585 1582 1579 1576 1572 1570 1567 1564 1562 1559 1555 1552 1548 1546 1543 1541 1539 1536 1534 1532 1530 1529 1527
1619 1621 1622 1621 1621 1620 1619 1618 1617 1615 1613 1611 1608 1605 1601 1598 1594 1591 1586 1583 1579 1575 1572 1568 1565 1562 1559 1556 1553 1551 1547 1543 1540 1537 1532 1531 1528 1526 1525 1523 1522 1520 1518
1618 1619 1620 1620 1620 1619 1618 1616 1614 1612 1610 1607 1605 1601 1597 1594 1590 1585 1581 1576 1572 1568 1564 1559 1556 1553 1550 1548 1545 1542 1538 1533 1529 1526 1523 1519 1516 1515 1515 1513 1513 1512 1511
1616 1617 1619 1620 1619 1618 1616 1614 1611 1609 1607 1604 1601 1598 1594 1589 1584 1580 1575 1570 1565 1560 1556 1551 1547 1543 1540 1537 1533 1529 1525 1520 1516 1513 1512 1510 1506 1502 1503 1503 1502 1502 1501
1615 1616 1617 1618 1617 1616 1614 1611 1609 1606 1604 1601 1597 1592 1588 1583 1579 1574 1568 1564 1558 1553 1548 1543 1538 1534 1530 1526 1521 1517 1511 1506 1502 1499 1498 1497 1496 1491 1490 1490 1491 1490 1490
1614 1615 1615 1616 1615 1614 1611 1609 1606 1604 1600 1597 1592 1588 1583 1579 1574 1568 1563 1557 1552 1547 1541 1535 1530 1524 1519 1515 1510 1505 1498 1494 1489 1486 1484 1483 1483 1482 1478 1480 1479 1480 1480
1611 1612 1612 1612 1612 1610 1607 1605 1603 1600 1596 1592 1587 1582 1577 1572 1568 1563 1557 1552 1546 1540 1535 1529 1522 1517 1512 1507 1500 1495 1488 1482 1477 1474 1471 1469 1468 1470 1468 1469 1469 1472 1473
1610 1610 1610 1610 1609 1607 1604 1601 1599 1595 1591 1586 1582 1577 1573 1567 1562 1557 1552 1546 1540 1534 1528 1522 1517 1510 1503 1499 1493 1488 1481 1473 1467 1462 1458 1455 1454 1455 1457 1458 1460 1463 1467
1609 1608 1608 1608 1607 1604 1600 1597 1594 1590 1586 1581 1576 1572 1568 1563 1557 1551 1546 1540 1534 1527 1521 1515 1508 1503 1497 1491 1486 1480 1474 1467 1459 1453 1447 1444 1439 1442 1445 1447 1449 1455 1460
1607 1607 1606 1605 1603 1600 1596 1592 1588 1584 1579 1575 1570 1567 1562 1557 1552 1545 1539 1533 1527 1520 1514 1507 1500 1495 1489 1484 1478 1472 1466 1460 1454 1446 1440 1435 1434 1434 1433 1435 1440 1446 1450
1605 1604 1603 1601 1599 1595 1592 1587 1583 1579 1575 1571 1566 1561 1556 1551 1546 1539 1533 1527 1521 1515 1508 1501 1494 1487 1481 1476 1470 1464 1458 1452 1447 1441 1434 1427 1424 1424 1425 1427 1432 1437 1440
1602 1601 1599 1596 1593 1590 1586 1582 1578 1574 1570 1565 1561 1555 1550 1544 1539 1534 1528 1522 1515 1509 1503 1495 1488 1480 1473 1467 1462 1454 1448 1444 1440 1435 1429 1423 1418 1417 1418 1419 1425 1429 1432
1599 1597 1594 1591 1587 1584 1580 1576 1573 1569 1565 1561 1556 1550 1545 1540 1534 1528 1522 1515 1509 1504 1497 1489 1482 1475 1467 1461 1457 1450 1442 1438 1435 1431 1426 1422 1418 1417 1416 1417 1420 1423 1426
1594 1591 1589 1586 1582 1578 1575 1571 1568 1564 1560 1555 1550 1546 1540 1535 1528 1521 1513 1507 1500 1494 1489 1484 1478 1470 1465 1457 1450 1444 1438 1433 1430 1427 1424 1421 1418 1417 1416 1416 1418 1419 1420